Weather History for Oxford, CT

Change the Weather History Date:

Saturday, March 22, 2014

  Actual Average Record
Temperature  
Mean Temperature 40 °F -  
Max Temperature 55 °F 44 °F 75 °F (2012)
Min Temperature 24 °F 28 °F 14 °F (2002)
Degree Days  
Heating Degree Days 26    
Moisture  
Dew Point 23 °F    
Average Humidity 60    
Maximum Humidity 75    
Minimum Humidity 33    
Precipitation  
Precipitation 0.00 in - - ()
Sea Level Pressure  
Sea Level Pressure 29.93 in    
Wind  
Wind Speed 9 mph (SSE)    
Max Wind Speed 110 mph    
Max Gust Speed 31 mph    
Visibility 10 miles    
Events      
Averages and records for this station are not official NWS values.
T = Trace of Precipitation, MM = Missing Value Source: NWS Daily Summary

Daily Weather History Graph

Daily Weather History Graph

Search for Another Location

Airport:

Trip Planner

Search our weather history database for the weather conditions in past years. The results will help you decide how hot, cold, wet, or windy it might be!

Date:

Astronomy

Mar. 22, 2014 Rise Set
Actual Time 6:52 AM EDT 7:06 PM EDT
Civil Twilight 6:24 AM EDT 7:34 PM EDT
Nautical Twilight 5:52 AM EDT 8:07 PM EDT
Astronomical Twilight 5:19 AM EDT 8:40 PM EDT
Moon 12:26 AM EDT (3/22) 10:29 AM EDT (3/22)
Length of Visible Light 13h 09m
Length of Day
12h 14m
Waning Gibbous, 65% of the Moon is Illuminated
Mar 22
Waning Gibbous
Mar 23
Last Quarter
Mar 30
New
Apr 7
First Quarter
Apr 15
Full

Hourly Weather History & Observations

Time (EDT) Temp. Windchill Dew Point Humidity Pressure Visibility Wind Dir Wind Speed Gust Speed Precip Events Conditions
12:15 AM 30.2 °F - 17.6 °F 60% 30.06 in 10.0 mi Calm Calm - N/A   Clear
12:35 AM 28.4 °F 23.3 °F 17.6 °F 64% 30.07 in 10.0 mi ENE 4.6 mph - N/A   Clear
12:55 AM 30.2 °F 25.4 °F 15.8 °F 55% 30.06 in 10.0 mi ENE 4.6 mph - N/A   Clear
1:15 AM 28.4 °F - 15.8 °F 59% 30.06 in 10.0 mi Calm Calm - N/A   Clear
1:35 AM 26.6 °F - 15.8 °F 64% 30.05 in 10.0 mi Calm Calm - N/A   Clear
1:55 AM 26.6 °F - 15.8 °F 64% 30.05 in 10.0 mi Calm Calm - N/A   Clear
2:15 AM 26.6 °F - 15.8 °F 64% 30.05 in 10.0 mi Calm Calm - N/A   Clear
2:35 AM 24.8 °F - 15.8 °F 69% 30.05 in 10.0 mi Calm Calm - N/A   Clear
2:55 AM 26.6 °F - 17.6 °F 69% 30.05 in 10.0 mi Calm Calm - N/A   Clear
3:15 AM 26.6 °F - 17.6 °F 69% 30.04 in 10.0 mi Calm Calm - N/A   Clear
3:35 AM 28.4 °F 24.6 °F 17.6 °F 64% 30.04 in 10.0 mi ESE 3.5 mph - N/A   Mostly Cloudy
3:55 AM 28.4 °F 24.6 °F 17.6 °F 64% 30.04 in 10.0 mi SSE 3.5 mph - N/A   Overcast
4:15 AM 28.4 °F 24.6 °F 17.6 °F 64% 30.02 in 10.0 mi SE 3.5 mph - N/A   Mostly Cloudy
4:35 AM 28.4 °F 24.6 °F 15.8 °F 59% 30.02 in 10.0 mi SE 3.5 mph - N/A   Scattered Clouds
4:55 AM 28.4 °F 24.6 °F 15.8 °F 59% 30.01 in 10.0 mi SE 3.5 mph - N/A   Scattered Clouds
5:15 AM 28.4 °F 22.2 °F 17.6 °F 64% 30.00 in 10.0 mi SSE 5.8 mph - N/A   Mostly Cloudy
5:35 AM 28.4 °F 22.2 °F 17.6 °F 64% 29.99 in 10.0 mi SSE 5.8 mph - N/A   Mostly Cloudy
5:52 AM - - - N/A% 29.98 in 10.0 mi SSE 6.9 mph - N/A   Scattered Clouds
5:55 AM 28.4 °F 19.7 °F 17.6 °F 64% 29.98 in 10.0 mi SSE 9.2 mph - N/A   Scattered Clouds
6:15 AM 28.4 °F 19.7 °F 19.4 °F 69% 29.97 in 10.0 mi SSE 9.2 mph - N/A   Partly Cloudy
6:35 AM 30.2 °F 22.6 °F 19.4 °F 64% 29.96 in 10.0 mi SE 8.1 mph - N/A   Scattered Clouds
6:52 AM - - - N/A% 29.96 in 10.0 mi SSE 110.5 mph - N/A   Overcast
6:55 AM 30.2 °F 21.3 °F 21.2 °F 69% 29.96 in 10.0 mi SSE 10.4 mph - N/A   Overcast
7:15 AM 30.2 °F 23.4 °F 21.2 °F 69% 29.96 in 10.0 mi SE 6.9 mph - N/A   Overcast
7:35 AM 30.2 °F 22.6 °F 21.2 °F 69% 29.95 in 10.0 mi SE 8.1 mph - N/A   Overcast
7:52 AM 32.0 °F - 23.0 °F 69% 29.93 in 10.0 mi SE 110.5 mph - N/A   Overcast
7:55 AM 32.0 °F 24.2 °F 23.0 °F 69% 29.93 in 10.0 mi SE 9.2 mph - N/A   Overcast
8:15 AM 32.0 °F 23.6 °F 23.0 °F 69% 29.91 in 10.0 mi SE 10.4 mph - N/A   Mostly Cloudy
8:35 AM 33.8 °F 25.8 °F 24.8 °F 70% 29.89 in 10.0 mi SE 10.4 mph 16.1 mph N/A   Overcast
8:52 AM 50.0 °F - 26.6 °F 40% 29.98 in 10.0 mi SSE 11.5 mph 20.7 mph N/A   Scattered Clouds
8:55 AM 33.8 °F 25.3 °F 26.6 °F 75% 29.88 in 10.0 mi SE 11.5 mph 20.7 mph N/A   Scattered Clouds
9:15 AM 35.6 °F 27.5 °F 26.6 °F 70% 29.88 in 10.0 mi SSE 11.5 mph - N/A   Mostly Cloudy
9:35 AM 37.4 °F 29.3 °F 28.4 °F 70% 29.85 in 10.0 mi SSE 12.7 mph - N/A   Mostly Cloudy
9:52 AM 39.2 °F 31.2 °F 28.4 °F 65% 29.83 in 10.0 mi SSE 13.8 mph 20.7 mph N/A   Mostly Cloudy
9:55 AM 39.2 °F 30.8 °F 30.2 °F 70% 29.83 in 10.0 mi SSE 15.0 mph 23.0 mph N/A   Scattered Clouds
10:15 AM 42.8 °F 35.8 °F 30.2 °F 61% 29.82 in 10.0 mi South 13.8 mph 20.7 mph N/A   Clear
10:35 AM 44.6 °F 38.1 °F 32.0 °F 61% 29.80 in 10.0 mi South 13.8 mph 24.2 mph N/A   Clear
10:52 AM 44.6 °F 37.4 °F 30.2 °F 57% 29.78 in 10.0 mi South 16.1 mph 20.7 mph N/A   Scattered Clouds
10:55 AM 44.6 °F 38.1 °F 33.8 °F 66% 29.78 in 10.0 mi South 13.8 mph 21.9 mph N/A   Partly Cloudy
11:15 AM 46.4 °F 40.4 °F 35.6 °F 66% 29.77 in 10.0 mi SSW 13.8 mph 21.9 mph N/A   Partly Cloudy
11:35 AM 48.2 °F - 35.6 °F 62% 29.77 in 10.0 mi WSW 12.7 mph 19.6 mph N/A   Clear
11:55 AM 48.2 °F - 35.6 °F 62% 29.78 in 10.0 mi WSW 10.4 mph 20.7 mph N/A   Scattered Clouds
12:50 PM 48.2 °F - 33.8 °F 58% 29.76 in 10.0 mi West 11.5 mph 17.3 mph N/A   Scattered Clouds
1:45 PM 53.6 °F - 35.6 °F 51% 29.76 in 10.0 mi West 11.5 mph 27.6 mph N/A   Clear
2:25 PM 55.4 °F - 33.8 °F 44% 29.75 in 10.0 mi West 11.5 mph 31.1 mph N/A   Mostly Cloudy
2:50 PM 55.4 °F - 33.8 °F 44% 29.76 in 10.0 mi West 17.3 mph 28.8 mph N/A   Mostly Cloudy
3:50 PM 55.4 °F - 30.2 °F 38% 29.76 in 10.0 mi West 17.3 mph 28.8 mph N/A   Mostly Cloudy
4:50 PM 55.4 °F - 26.6 °F 33% 29.78 in 10.0 mi West 18.4 mph 27.6 mph N/A   Unknown
5:50 PM 55.4 °F - 26.6 °F 33% 29.81 in 10.0 mi NW 11.5 mph 26.5 mph N/A   Clear
6:50 PM 33.8 °F 25.3 °F 24.8 °F 70% 29.86 in 10.0 mi NNW 11.5 mph 233.6 mph N/A   Clear
7:50 PM 46.4 °F 41.1 °F 24.8 °F 43% 29.92 in 10.0 mi North 11.5 mph 17.3 mph N/A   Clear
8:55 PM 41.0 °F 33.5 °F 21.2 °F 45% 29.97 in 10.0 mi NNW 13.8 mph 19.6 mph N/A   Clear
9:15 PM 41.0 °F 35.8 °F 21.2 °F 45% 29.97 in 10.0 mi NNW 8.1 mph - N/A   Clear
9:35 PM 39.2 °F 32.5 °F 21.2 °F 49% 29.98 in 10.0 mi NNW 10.4 mph - N/A   Clear
9:55 PM 37.4 °F 29.3 °F 21.2 °F 52% 29.98 in 10.0 mi NNW 12.7 mph - N/A   Clear
10:15 PM 37.4 °F 30.3 °F 21.2 °F 52% 29.98 in 10.0 mi NNW 10.4 mph - N/A   Clear
10:35 PM 35.6 °F 29.2 °F 21.2 °F 56% 29.99 in 10.0 mi North 8.1 mph - N/A   Clear
10:55 PM 35.6 °F 31.7 °F 21.2 °F 56% 29.99 in 10.0 mi NNE 4.6 mph - N/A   Clear
11:15 PM 33.8 °F 27.7 °F 21.2 °F 60% 29.99 in 10.0 mi North 6.9 mph - N/A   Clear
11:35 PM 33.8 °F 28.6 °F 19.4 °F 56% 30.00 in 10.0 mi North 5.8 mph - N/A   Clear
11:55 PM 30.2 °F 25.4 °F 19.4 °F 64% 29.99 in 10.0 mi North 4.6 mph - N/A   Clear